TimeAKDT,TemperatureF,Dew PointF,Humidity,Sea Level PressureIn,VisibilityMPH,Wind Direction,Wind SpeedMPH,Gust SpeedMPH,PrecipitationIn,Events,Conditions,WindDirDegrees,DateUTC
12:22 AM,8.6,5.0,85,29.60,8.0,SW,10.4,-,N/A,,Overcast,220,2013-05-17 08:22:00
12:53 AM,6.1,3.0,87,29.61,5.0,SW,8.1,-,N/A,,Overcast,220,2013-05-17 08:53:00
1:02 AM,6.8,3.2,85,29.61,7.0,SSW,9.2,-,N/A,,Overcast,210,2013-05-17 09:02:00
1:53 AM,8.1,3.9,83,29.62,7.0,WSW,13.8,-,N/A,,Overcast,250,2013-05-17 09:53:00
2:53 AM,5.0,1.9,87,29.63,8.0,West,11.5,-,N/A,,Partly Cloudy,260,2013-05-17 10:53:00
3:53 AM,6.1,3.0,87,29.65,10.0,WSW,6.9,-,N/A,,Overcast,240,2013-05-17 11:53:00
4:53 AM,9.0,5.0,84,29.66,10.0,WSW,6.9,-,N/A,,Overcast,250,2013-05-17 12:53:00
5:53 AM,10.0,6.1,84,29.67,10.0,WSW,6.9,-,N/A,,Overcast,240,2013-05-17 13:53:00
6:53 AM,10.0,3.9,76,29.68,9.0,WNW,3.5,-,N/A,,Mostly Cloudy,300,2013-05-17 14:53:00
7:53 AM,10.0,6.1,84,29.68,4.0,Calm,Calm,-,N/A,,Overcast,0,2013-05-17 15:53:00
8:44 AM,10.4,8.6,92,29.70,2.0,South,3.5,-,0.00,Snow,Light Snow,170,2013-05-17 16:44:00
8:53 AM,10.0,7.0,87,29.70,2.0,Calm,Calm,-,0.00,Snow,Light Snow,0,2013-05-17 16:53:00
9:44 AM,10.4,6.8,85,29.71,1.2,Calm,Calm,-,0.01,Snow,Light Snow,0,2013-05-17 17:44:00
9:51 AM,10.4,8.6,92,29.71,3.0,Calm,Calm,-,0.01,,Mostly Cloudy,0,2013-05-17 17:51:00
9:53 AM,10.9,8.1,88,29.71,3.0,SE,3.5,-,0.01,,Mostly Cloudy,130,2013-05-17 17:53:00
10:03 AM,10.4,6.8,85,29.71,6.0,ESE,4.6,-,N/A,,Scattered Clouds,110,2013-05-17 18:03:00
10:53 AM,10.0,7.0,87,29.73,9.0,SE,5.8,-,N/A,,Scattered Clouds,140,2013-05-17 18:53:00
11:53 AM,10.9,8.1,88,29.74,10.0,SSW,4.6,-,N/A,,Scattered Clouds,200,2013-05-17 19:53:00
12:53 PM,14.0,8.1,77,29.75,10.0,Calm,Calm,-,N/A,,Mostly Cloudy,0,2013-05-17 20:53:00
1:53 PM,15.1,9.0,77,29.76,10.0,Calm,Calm,-,N/A,,Scattered Clouds,0,2013-05-17 21:53:00
2:53 PM,15.1,9.0,77,29.78,10.0,West,3.5,-,N/A,,Scattered Clouds,260,2013-05-17 22:53:00
3:53 PM,18.0,8.1,65,29.79,10.0,Calm,Calm,-,N/A,,Partly Cloudy,0,2013-05-17 23:53:00
4:53 PM,17.1,8.1,68,29.80,10.0,Calm,Calm,-,N/A,,Partly Cloudy,0,2013-05-18 00:53:00
5:53 PM,16.0,9.0,74,29.80,10.0,Variable,3.5,-,N/A,,Partly Cloudy,0,2013-05-18 01:53:00
5:57 PM,15.8,8.6,73,29.80,10.0,WSW,3.5,-,N/A,,Mostly Cloudy,250,2013-05-18 01:57:00
6:53 PM,16.0,10.0,77,29.82,10.0,West,3.5,-,0.00,Snow,Light Snow,270,2013-05-18 02:53:00
7:53 PM,15.1,8.1,74,29.83,10.0,NW,3.5,-,0.00,,Mostly Cloudy,320,2013-05-18 03:53:00
8:53 PM,14.0,7.0,74,29.84,10.0,Calm,Calm,-,N/A,,Mostly Cloudy,0,2013-05-18 04:53:00
9:53 PM,14.0,8.1,77,29.85,10.0,WSW,3.5,-,N/A,,Scattered Clouds,250,2013-05-18 05:53:00
10:53 PM,12.0,8.1,84,29.86,10.0,SW,5.8,-,N/A,,Scattered Clouds,230,2013-05-18 06:53:00
11:53 PM,12.0,7.0,80,29.87,10.0,SW,8.1,-,N/A,,Overcast,220,2013-05-18 07:53:00